Showing default

COSMOS 2094, 20739

Orbit data source: Space-Track

COSMOS 2094, 20739 is a payload satellite owned by UNKS (CIS) in LEO that was launched on Wed, 08 Aug 1990 UTC via a TSIKLON-3 launch vehicle from the Plesetsk Missile And Space Complex (PKMTR). Payload-class satellites include a variety of spacecraft equipped with specific instruments for various scientific and technological missions. These include communications satellites like Starlink; space stations such as the ISS; scientific satellites like the Hubble; Earth observation satellites from companies like Planet Labs, Umbra, and HawkEye 360; GPS; miniature CubeSats for education and research; and military/defense satellites.

Loading next visibility...
Identifier
20739, 1990-070E
Orbit
LEO
Country
Flag of CISCIS
Related business
Manufacturer
NPO PM
Mission
Defense Communications
Bus & Motor
STRELA-3, Unknown motor
Mass
225 kg wet, 225 kg dry
Launch date (UTC)
1990-08-08 (35 years ago)
Launch vehicle
TSIKLON-3
Launch site
Plesetsk Missile And Space Complex (PKMTR)
Object type
Payload
Rocket body
Debris
Shape & HBR
Cyl, 0.8 m
Radar Cross Section
1.257 m², Large (>1 m²)

Expand to show TLE details & history
Last TLE update: 21 hours ago

TLE from 21 hours ago
0 COSMOS 2094
1 20739U 90070E   25257.57545245  .00000010  00000-0 -19247-5 0  9995
2 20739  82.5718 108.5320 0011687   0.8783  59.5962 12.64746013620381
Epoch: 2025-09-14T13:48Z
TLE epoch observation values (Epoch: 2025-09-14T13:48:39.091Z)
Latitude
59.83653°
Longitude
-79.52446°
Altitude
1,408.946 km
Speed
7.163 km/s
True Right ascension
08h 05m 43s
True Declination
59° 41' 58"
Sunlit
Object was in daylight at epoch
Visualization orbit readout
Latitude
Unknown
Longitude
Unknown
Altitude
Unknown
Speed
Unknown
Apparent Right ascension
Unknown
Apparent Declination
Unknown
Sunlit
N/A
Visualization observer readout
Local Sidereal Time
03:52:09
Azimuth
Unknown
Elevation
Unknown
Doppler factor
Unknown
Orbital elements
Apogee altitude
1,409.825 km
Perigee altitude
1,391.643 km
Semi-major axis
7,778.871 km
Eccentricity
0.00117
Inclination
82.5718°
RAAN
108.532°
Arg. of periapsis
0.8783°
True anomaly
59.71179°
Mean anomaly
59.5962°
Eccentric anomaly
59.65399°
Mean motion
3.1635 °/min
Orbital period
113.8 mins
BSTAR
-0.0000019247
Loading maneuver chart data...
Computing Atmospheric mass density...
Loading historical data...
Loading historical data...
Loading historical data...
Loading historical data...
Loading historical data...
Loading historical data...
Loading historical data...

Documentation

Showing up to 5 results
|